Flag for Russia Weather past 2 weeks in Yuzhno-Sakhalinsk, Russia

Now
57 °F

Fog.


Feels Like: 57 °F
Forecast: 58 / 67 °F
Wind: No wind

Location: Yuzhno Airport-Sakhalinsk

Current Time: Aug 23, 2014 at 5:00:35 AM

Latest Report: Aug 23, 2014 at 4:00 AM


Visibility: 1 mi

Pressure: 29.83 "Hg

Humidity: 100%

Dew point: 57 °F

Location of Yuzhno-SakhalinskLocation

Historic Weather in Yuzhno-Sakhalinsk — Graph

°F

Yuzhno-Sakhalinsk temperature yesterday

Maximum temperature yesterday: 75 °F (at 2:00 PM)
Minimum temperature yesterday: 61 °F (at 11:00 PM)
Average temperature yesterday: 67 °F

Past Weeks' High & Low Weather Summary

 TemperatureHumidityPressure
High81 °F (Aug 9, 2:00 PM)100% (Aug 8, 4:00 AM)30.01 "Hg (Aug 8, 4:00 AM)
Low52 °F (Aug 18, 6:00 AM)54% (Aug 9, 2:00 PM)29.39 "Hg (Aug 11, 8:30 PM)
Average65 °F89%29.84 "Hg
* Reported Aug 8 4:00 AM — Aug 23 4:00 AM, Yuzhno-Sakhalinsk, Weather by CustomWeather, © 2014

Note: Actual official high and low records may vary slightly from our data, if they occured in-between our weather recording intervals... More about our weather records

Advertising

Yuzhno-Sakhalinsk weather history for previous 24 hours

 ConditionsComfort  
Time TempWeatherWind HumidityBarometerVisibility
4:00 AM
Aug 23
57 °FFog.No wind100%29.83 "Hg1 mi
3:00 AM57 °FFog.No wind100%29.86 "Hg2 mi
2:00 AM59 °FFog.No wind100%29.86 "Hg3 mi
1:00 AM59 °FFog.No wind100%29.89 "Hg3 mi
12:00 AM61 °FPassing clouds.No wind100%29.89 "Hg4 mi
11:00 PM
Aug 22
61 °FPassing clouds.No wind100%29.89 "Hg5 mi
10:00 PM63 °FPassing clouds.1 mph100%29.89 "Hg5 mi
9:30 PM63 °FPassing clouds.No wind100%29.89 "Hg5 mi
9:00 PM64 °FPartly sunny.6 mph94%29.89 "HgN/A
8:30 PM64 °FScattered clouds.3 mph94%29.89 "HgN/A
8:00 PM64 °FPassing clouds.6 mph94%29.89 "HgN/A
7:30 PM66 °FClear.6 mph88%29.89 "HgN/A
7:00 PM68 °FClear.6 mph88%29.89 "HgN/A
6:30 PM72 °FClear.6 mph78%29.89 "HgN/A
6:00 PM72 °FClear.8 mph78%29.86 "HgN/A
5:30 PM73 °FPassing clouds.8 mph74%29.86 "HgN/A
5:00 PM73 °FPassing clouds.10 mph74%29.89 "HgN/A
4:30 PM73 °FPassing clouds.10 mph74%29.89 "HgN/A
4:00 PM73 °FScattered clouds.10 mph74%29.89 "HgN/A
3:30 PM75 °FScattered clouds.10 mph69%29.89 "HgN/A
3:00 PM75 °FScattered clouds.8 mph69%29.89 "HgN/A
2:30 PM75 °FScattered clouds.6 mph69%29.89 "HgN/A
2:00 PM75 °FScattered clouds.8 mph69%29.92 "HgN/A
1:30 PM73 °FScattered clouds.6 mph69%29.92 "HgN/A
1:00 PM73 °FScattered clouds.6 mph74%29.92 "HgN/A
12:30 PM72 °FPartly sunny.6 mph73%29.92 "HgN/A
12:00 PM68 °FPartly sunny.6 mph78%29.95 "HgN/A
11:30 AM68 °FPartly sunny.8 mph78%29.95 "HgN/A
11:00 AM68 °FPartly sunny.6 mph78%29.95 "HgN/A
10:30 AM66 °FPartly sunny.6 mph83%29.92 "HgN/A
10:00 AM68 °FPartly sunny.8 mph78%29.92 "HgN/A
9:30 AM64 °FPartly sunny.6 mph94%29.95 "HgN/A
9:00 AM64 °FPartly sunny.6 mph94%29.92 "HgN/A
8:30 AM64 °FPartly sunny.6 mph94%29.95 "HgN/A
8:00 AM64 °FPartly sunny.6 mph94%29.95 "HgN/A
7:30 AM63 °FPassing clouds.6 mph100%29.95 "HgN/A
7:00 AM63 °FPassing clouds.3 mph100%29.95 "HgN/A
6:30 AM63 °FPassing clouds.3 mph100%29.95 "HgN/A
6:00 AM63 °FPassing clouds.3 mph100%29.92 "HgN/A
5:00 AM63 °FPassing clouds.3 mph100%29.92 "HgN/A
Weather by CustomWeather, © 2014

See weather overviewHow to use our weather pages